Location: Ceske Budejovice
(48.9830°N, 14.4670°E)
Time: 02:30:51
(UTC+01:00)

ISS - Pass Details

Date: 06 October 2020
Orbit: 417 x 420 km, 51.6° (Epoch: 25 October)

Event Time Altitude Azimuth Distance (km) Brightness Sun altitude
Rises 20:22:07 0° 279° (W) 2,367 1.7 -19.1°
Reaches altitude 10° 20:25:51 10° 237° (WSW) 1,498 -0.4 -19.7°
Maximum altitude 20:26:28 10° 226° (SW) 1,474 -0.6 -19.8°
Drops below altitude 10° 20:27:05 10° 216° (SW) 1,496 -0.7 -19.9°
Enters shadow 20:28:37 - 193° (SSW) 1,733 -0.7 -20.2°
